• In Hungary
  • List of Countries
  • For 7 days
  • Water Temperature
  • Satellite Maps
  • Weather Map
  • News
  • Weather Widgets
  • user-avatar
    Login

    Hourly Weather Olszana

    Today, 19 November, Sunday

    Time Temperature Precipitation Wind Pressure Humidity
    00:00 +1°C° 0 mm 2 mps 725 mmHg 86%
    01:00 0°C° 0 mm 5 mps 724 mmHg 79%
    02:00 0°C° 0.1 mm 4 mps 724 mmHg 81%
    03:00 0°C° 0.1 mm 3 mps 724 mmHg 84%
    04:00 +1°C° 0.1 mm 2 mps 723 mmHg 86%
    05:00 +1°C° 0 mm 2 mps 723 mmHg 87%
    06:00 +1°C° 0 mm 2 mps 723 mmHg 88%
    07:00 +1°C° 0 mm 1 mps 723 mmHg 89%
    08:00 +1°C° 0 mm 2 mps 723 mmHg 83%
    09:00 +3°C° 0 mm 2 mps 724 mmHg 76%
    10:00 +3°C° 0 mm 3 mps 724 mmHg 69%
    11:00 +3°C° 0.1 mm 3 mps 723 mmHg 67%
    12:00 +3°C° 0.1 mm 3 mps 723 mmHg 65%
    13:00 +4°C° 0.1 mm 3 mps 723 mmHg 62%
    14:00 +4°C° 0.1 mm 2 mps 723 mmHg 68%
    15:00 +3°C° 0.1 mm 2 mps 723 mmHg 74%
    16:00 +2°C° 0.1 mm 2 mps 722 mmHg 80%
    17:00 +1°C° 0.1 mm 2 mps 722 mmHg 81%
    18:00 +1°C° 0.1 mm 2 mps 722 mmHg 83%
    19:00 -1°C° 0.1 mm 2 mps 722 mmHg 85%
    20:00 -1°C° 0 mm 3 mps 722 mmHg 84%
    21:00 -1°C° 0 mm 3 mps 722 mmHg 84%
    22:00 -1°C° 0 mm 3 mps 722 mmHg 84%
    23:00 0°C° 0.1 mm 3 mps 722 mmHg 84%

    Tomorrow, 20 November, Monday

    Time Temperature Precipitation Wind Pressure Humidity
    00:00 0°C° 0.1 mm 3 mps 722 mmHg 84%
    01:00 0°C° 0.1 mm 3 mps 722 mmHg 84%
    02:00 0°C° 0.6 mm 3 mps 722 mmHg 85%
    03:00 0°C° 0.6 mm 3 mps 722 mmHg 86%
    04:00 0°C° 0.6 mm 3 mps 723 mmHg 87%
    05:00 0°C° 0.1 mm 3 mps 723 mmHg 86%
    06:00 -1°C° 0.1 mm 4 mps 723 mmHg 86%
    07:00 -2°C° 0.1 mm 4 mps 723 mmHg 85%
    08:00 -1°C° 0.1 mm 4 mps 724 mmHg 83%
    09:00 -1°C° 0.1 mm 5 mps 725 mmHg 81%
    10:00 0°C° 0.1 mm 5 mps 725 mmHg 78%
    11:00 0°C° 0.1 mm 5 mps 725 mmHg 76%
    12:00 0°C° 0.1 mm 5 mps 726 mmHg 74%
    13:00 +1°C° 0.1 mm 5 mps 726 mmHg 71%
    14:00 0°C° 0 mm 4 mps 726 mmHg 74%
    15:00 0°C° 0 mm 3 mps 726 mmHg 76%
    16:00 -1°C° 0 mm 2 mps 726 mmHg 79%
    17:00 -1°C° 0.1 mm 2 mps 726 mmHg 80%
    18:00 -1°C° 0.1 mm 2 mps 726 mmHg 81%
    19:00 +1°C° 0.1 mm 2 mps 727 mmHg 82%
    20:00 -1°C° 0.2 mm 2 mps 727 mmHg 84%
    21:00 -1°C° 0.2 mm 2 mps 727 mmHg 87%
    22:00 -1°C° 0.2 mm 3 mps 727 mmHg 89%
    23:00 -1°C° 0.1 mm 2 mps 726 mmHg 89%

    Day after tomorrow, 21 November, Tuesday

    Time Temperature Precipitation Wind Pressure Humidity
    00:00 -1°C° 0.1 mm 2 mps 726 mmHg 89%
    01:00 -1°C° 0.1 mm 2 mps 726 mmHg 89%
    02:00 -1°C° 0.2 mm 2 mps 726 mmHg 89%
    03:00 -1°C° 0.2 mm 2 mps 725 mmHg 89%
    04:00 +2°C° 0.2 mm 1 mps 725 mmHg 90%
    05:00 +1°C° 0.3 mm 2 mps 725 mmHg 91%
    06:00 +1°C° 0.3 mm 2 mps 724 mmHg 91%
    07:00 +1°C° 0.3 mm 2 mps 724 mmHg 92%
    08:00 +1°C° 0.4 mm 2 mps 724 mmHg 91%
    09:00 +2°C° 0.4 mm 2 mps 724 mmHg 91%
    10:00 +2°C° 0.4 mm 2 mps 724 mmHg 90%
    11:00 +2°C° 0.5 mm 2 mps 723 mmHg 91%
    12:00 +3°C° 0.5 mm 2 mps 723 mmHg 91%
    13:00 +3°C° 0.5 mm 2 mps 723 mmHg 92%
    14:00 +3°C° 0.7 mm 2 mps 723 mmHg 93%
    15:00 +3°C° 0.7 mm 2 mps 723 mmHg 94%
    16:00 +3°C° 0.7 mm 2 mps 723 mmHg 95%
    17:00 +3°C° 0.8 mm 2 mps 723 mmHg 95%
    18:00 +4°C° 0.8 mm 2 mps 723 mmHg 96%
    19:00 +4°C° 0.8 mm 2 mps 723 mmHg 96%
    20:00 +4°C° 0.4 mm 2 mps 723 mmHg 96%
    21:00 +4°C° 0.4 mm 2 mps 724 mmHg 96%
    22:00 +4°C° 0.4 mm 2 mps 724 mmHg 96%
    23:00 +5°C° 0.3 mm 2 mps 724 mmHg 96%

    22 November, Wednesday

    Time Temperature Precipitation Wind Pressure Humidity
    00:00 +5°C° 0.3 mm 2 mps 724 mmHg 96%
    01:00 +5°C° 0.3 mm 2 mps 724 mmHg 96%
    02:00 +5°C° 0.1 mm 2 mps 725 mmHg 96%
    03:00 +5°C° 0.1 mm 2 mps 725 mmHg 96%
    04:00 +5°C° 0.1 mm 2 mps 725 mmHg 96%
    05:00 +6°C° 0 mm 1 mps 725 mmHg 96%
    06:00 +6°C° 0 mm 1 mps 726 mmHg 96%
    07:00 +6°C° 0 mm 1 mps 726 mmHg 95%
    08:00 +7°C° 0 mm 1 mps 726 mmHg 94%
    09:00 +6°C° 0 mm 2 mps 726 mmHg 93%
    10:00 +7°C° 0 mm 2 mps 727 mmHg 91%
    11:00 +8°C° 0 mm 2 mps 726 mmHg 90%
    12:00 +8°C° 0 mm 2 mps 726 mmHg 88%
    13:00 +9°C° 0 mm 3 mps 726 mmHg 86%
    14:00 +7°C° 0 mm 3 mps 726 mmHg 88%
    15:00 +6°C° 0 mm 2 mps 726 mmHg 89%
    16:00 +5°C° 0 mm 2 mps 726 mmHg 90%
    17:00 +5°C° 0 mm 2 mps 727 mmHg 89%
    18:00 +4°C° 0 mm 2 mps 727 mmHg 88%
    19:00 +4°C° 0 mm 2 mps 727 mmHg 88%
    20:00 +4°C° 0 mm 2 mps 728 mmHg 86%
    21:00 +4°C° 0 mm 2 mps 728 mmHg 85%
    22:00 +4°C° 0 mm 2 mps 728 mmHg 84%
    23:00 +4°C° 0 mm 2 mps 728 mmHg 84%

    23 November, Thursday

    Time Temperature Precipitation Wind Pressure Humidity
    00:00 +3°C° 0 mm 2 mps 728 mmHg 83%
    01:00 +3°C° 0 mm 2 mps 729 mmHg 83%
    02:00 +3°C° 0 mm 2 mps 729 mmHg 82%
    03:00 +3°C° 0 mm 2 mps 729 mmHg 82%
    04:00 +3°C° 0 mm 2 mps 729 mmHg 81%
    05:00 +3°C° 0 mm 2 mps 729 mmHg 81%
    06:00 +3°C° 0 mm 2 mps 730 mmHg 80%
    07:00 +3°C° 0 mm 2 mps 730 mmHg 80%
    08:00 +4°C° 0 mm 2 mps 730 mmHg 78%
    09:00 +6°C° 0 mm 2 mps 731 mmHg 77%
    10:00 +7°C° 0 mm 2 mps 731 mmHg 75%
    11:00 +7°C° 0 mm 2 mps 731 mmHg 75%
    12:00 +8°C° 0 mm 2 mps 731 mmHg 76%
    13:00 +9°C° 0 mm 2 mps 731 mmHg 76%
    14:00 +8°C° 0 mm 2 mps 731 mmHg 79%
    15:00 +5°C° 0 mm 3 mps 731 mmHg 82%
    16:00 +4°C° 0 mm 3 mps 731 mmHg 84%
    17:00 +4°C° 0 mm 3 mps 731 mmHg 84%
    18:00 +3°C° 0 mm 3 mps 732 mmHg 85%
    19:00 +3°C° 0 mm 3 mps 732 mmHg 85%
    20:00 +4°C° 0 mm 2 mps 732 mmHg 85%
    21:00 +4°C° 0 mm 2 mps 732 mmHg 85%
    22:00 +4°C° 0 mm 2 mps 732 mmHg 85%
    23:00 +3°C° 0 mm 2 mps 733 mmHg 86%

    24 November, Friday

    Time Temperature Precipitation Wind Pressure Humidity
    00:00 +3°C° 0 mm 2 mps 733 mmHg 86%
    01:00 +3°C° 0 mm 2 mps 733 mmHg 86%
    02:00 +3°C° 0 mm 2 mps 733 mmHg 87%
    03:00 +3°C° 0 mm 2 mps 733 mmHg 87%
    04:00 +3°C° 0 mm 2 mps 733 mmHg 87%
    05:00 +3°C° 0 mm 2 mps 733 mmHg 87%
    06:00 +3°C° 0 mm 2 mps 733 mmHg 88%
    07:00 +3°C° 0 mm 2 mps 733 mmHg 88%
    08:00 +5°C° 0 mm 2 mps 733 mmHg 86%
    09:00 +6°C° 0 mm 2 mps 733 mmHg 83%
    10:00 +7°C° 0 mm 2 mps 734 mmHg 81%
    11:00 +8°C° 0 mm 2 mps 733 mmHg 80%
    12:00 +9°C° 0 mm 2 mps 733 mmHg 80%
    13:00 +9°C° 0 mm 2 mps 733 mmHg 80%
    14:00 +8°C° 0 mm 2 mps 733 mmHg 84%
    15:00 +7°C° 0 mm 2 mps 733 mmHg 88%
    16:00 +6°C° 0 mm 2 mps 733 mmHg 92%
    17:00 +5°C° 0 mm 2 mps 733 mmHg 92%
    18:00 +5°C° 0 mm 2 mps 733 mmHg 93%
    19:00 +5°C° 0 mm 2 mps 733 mmHg 93%
    20:00 +4°C° 0 mm 2 mps 733 mmHg 93%
    21:00 +4°C° 0 mm 2 mps 733 mmHg 93%
    22:00 +4°C° 0 mm 2 mps 733 mmHg 92%
    23:00 +4°C° 0 mm 2 mps 733 mmHg 92%
    Show more